Waarnemingen

Advertentie
Mijn weer
Chambery/Aix-Les-Bains, Frankrijk (7491): temperatuur & dauwpunt: 17.01.2018 04:00:00 - 23.01.2018 04:00:00 (CET)Chambery/Aix-Les-Bains, Frankrijk (7491): temperatuur 5cm: 17.01.2018 04:00:00 - 23.01.2018 04:00:00 (CET)Chambery/Aix-Les-Bains, Frankrijk (7491): temperatuur -20cm & temperatuur -100cm: 17.01.2018 04:00:00 - 23.01.2018 04:00:00 (CET)Chambery/Aix-Les-Bains, Frankrijk (7491): windsnelheid & windstoten: 17.01.2018 04:00:00 - 23.01.2018 04:00:00 (CET)Chambery/Aix-Les-Bains, Frankrijk (7491): windrichting: 17.01.2018 04:00:00 - 23.01.2018 04:00:00 (CET)Chambery/Aix-Les-Bains, Frankrijk (7491): luchtdruk: 17.01.2018 04:00:00 - 23.01.2018 04:00:00 (CET)Chambery/Aix-Les-Bains, Frankrijk (7491): zicht: 17.01.2018 04:00:00 - 23.01.2018 04:00:00 (CET)Chambery/Aix-Les-Bains, Frankrijk (7491): Zonneschijnduur: 17.01.2018 04:00:00 - 23.01.2018 04:00:00 (CET)Chambery/Aix-Les-Bains, Frankrijk (7491): neerslag: 17.01.2018 04:00:00 - 23.01.2018 04:00:00 (CET)
Datum & Tijd tt [°C] td [°C] tt 5cm [°C] tt -20cm [°C] tt -100cm [°C] ff [km/u] ff [kn] fx [km/u] fx [kn] dd ppp [hPa] vv [km] sd [min] rr [mm]
23.01.2018 04:00:00 9,6 5,6 7,2 6,7 7,5 20 11 31 17 N 1025,1 20 0 0,0
23.01.2018 03:00:00 8,1 7,7 4,9 6,7 7,5 7 4 21 11 N 1025,1 3,8 0 0,0
23.01.2018 02:00:00 7,4 6,8 5,3 6,6 7,5 2 1 10 5 Z 1024,8 0,4 0 0,2
23.01.2018 01:00:00 8,0 7,4 7,5 6,6 7,5 2 1 6 3 WNW 1024,3 2,7 0 0,0
23.01.2018 00:00:00 8,3 7,7 7,6 6,6 7,5 5 3 9 5 NO 1023,6 4,0 0 0,0
22.01.2018 23:00:00 8,3 7,5 7,7 6,6 7,5 3 2 12 6 O 1022,7 4,0 0 0,4
22.01.2018 22:00:00 8,4 7,6 8,0 6,6 7,5 6 3 18 10 Z 1022,3 6 0 0,2
22.01.2018 21:00:00 8,6 7,7 7,8 6,6 7,5 8 4 22 12 ZZO 1021,3 7 0 0,2
22.01.2018 20:00:00 8,9 8,0 7,7 6,5 7,5 10 5 20 11 Z 1020,6 9 0 1,0
22.01.2018 19:00:00 8,2 7,3 7,8 6,5 7,5 11 6 19 10 ZZO 1019,8 12 0 1,2
22.01.2018 18:00:00 8,5 7,4 8,0 6,4 7,5 5 3 23 12 OZO 1019,3 3,1 0 4,5
22.01.2018 17:00:00 8,6 7,2 7,8 6,4 7,5 23 12 39 21 Z 1018,1 7 0 0,8
22.01.2018 16:00:00 8,3 6,9 8,0 6,4 7,5 24 13 37 20 ZZW 1018,6 9 0 0,4
22.01.2018 15:00:00 8,4 7,0 7,9 6,3 7,5 15 8 36 19 Z 1017,9 6 0 1,4
22.01.2018 14:00:00 8,4 6,7 8,1 6,3 7,5 32 18 44 24 Z 1017,5 19 0 0,0
22.01.2018 13:00:00 8,0 6,6 7,8 6,2 7,5 28 15 37 20 Z 1019,1 17 0 0,0
22.01.2018 12:00:00 7,9 6,7 7,6 6,2 7,5 19 10 41 22 ZZW 1020,2 4,3 0 0,4
22.01.2018 11:00:00 7,9 6,7 7,3 6,2 7,5 18 10 40 22 ZZW 1020,4 6 0 0,4
22.01.2018 10:00:00 7,4 6,3 7,0 6,2 7,5 21 11 39 21 ZZW 1020,2 3,9 0 1,4
22.01.2018 09:00:00 7,4 6,2 6,6 6,2 7,5 23 12 38 20 ZZW 1020,2 3,5 0 3,0
22.01.2018 08:00:00 7,0 6,1 6,2 6,2 7,5 21 11 32 18 ZZW 1019,9 6 0 4,3
22.01.2018 07:00:00 6,5 5,4 6,2 6,2 7,5 18 10 31 17 Z 1019,9 4,2 0 3,2
22.01.2018 06:00:00 6,7 5,6 6,1 6,2 7,5 14 8 35 19 ZZW 1019,8 6 0 2,2
22.01.2018 05:00:00 6,8 5,7 6,1 6,2 7,5 25 13 35 19 Z 1019,9 6 0 3,7
22.01.2018 04:00:00 6,5 5,6 5,9 6,2 7,5 11 6 21 12 ZZO 1020,2 4,4 0 2,8
22.01.2018 03:00:00 6,3 5,3 5,8 6,2 7,5 8 4 26 14 Z 1020,5 2,9 0 1,0
22.01.2018 02:00:00 6,2 5,0 5,7 6,2 7,5 16 9 26 14 ZZW 1020,4 4,0 0 1,0
22.01.2018 01:00:00 6,4 5,0 5,7 6,2 7,5 15 8 35 19 ZZW 1020,5 12 0 0,6
22.01.2018 00:00:00 6,3 4,8 5,6 6,1 7,5 19 10 27 15 ZZW 1021,1 11 0 0,2
21.01.2018 23:00:00 6,1 4,7 5,6 6,1 7,5 10 5 33 18 ZW 1021,4 11 0 0,0
21.01.2018 22:00:00 6,0 4,8 5,6 6,1 7,5 19 11 30 16 Z 1021,4 6 0 0,4
21.01.2018 21:00:00 6,0 4,6 5,6 6,1 7,5 19 10 37 20 ZZW 1021,3 2,9 0 0,2
21.01.2018 20:00:00 6,7 4,2 5,6 6,1 7,5 24 13 43 23 ZZW 1020,5 18 0 0,0
21.01.2018 19:00:00 6,7 3,8 5,5 6,1 7,5 24 13 44 24 ZZW 1020,7 19 0 0,0
21.01.2018 18:00:00 6,8 4,6 5,9 6,1 7,5 20 11 28 15 Z 1020,6 17 0 0,0
21.01.2018 17:00:00 6,7 5,5 6,5 6,0 7,5 6 3 13 7 Z 1020,8 11 0 0,4
21.01.2018 16:00:00 7,0 5,3 6,8 6,0 7,5 7 4 10 6 Z 1020,4 9 0 0,4
21.01.2018 15:00:00 6,8 4,9 6,2 6,0 7,5 5 3 16 9 ZW 1020,7 13 0 1,0
21.01.2018 14:00:00 6,5 4,8 6,2 6,0 7,5 8 4 18 10 ZW 1020,8 12 0 0,6
21.01.2018 13:00:00 6,6 4,8 6,3 5,9 7,5 8 4 13 7 ZZW 1021,0 10 0 1,0
21.01.2018 12:00:00 6,9 5,0 6,4 5,9 7,6 8 5 16 9 ZZW 1021,3 11 0 0,8
21.01.2018 11:00:00 7,1 5,2 6,4 5,9 7,6 4 2 9 5 Z 1020,8 12 0 0,2
21.01.2018 10:00:00 7,1 5,4 6,4 5,9 7,5 5 3 16 9 WZW 1019,7 12 0 0,4
21.01.2018 09:00:00 7,9 4,8 6,4 5,9 7,5 3 1 22 12 O 1018,7 11 0 0,2
21.01.2018 08:00:00 9,2 3,6 6,8 5,8 7,5 7 4 48 26 ZZO 1017,0 15 0 0,0
21.01.2018 07:00:00 10,4 2,7 6,8 5,8 7,5 26 14 68 37 NW 1015,7 19 0 0,0
21.01.2018 06:00:00 10,4 3,0 6,7 5,8 7,5 26 14 59 32 WNW 1014,9 20 0 0,0
21.01.2018 05:00:00 11,1 2,4 7,5 5,7 7,5 13 7 85 46 NW 1014,3 19 0 0,0
21.01.2018 04:00:00 11,4 2,9 8,2 5,7 7,5 33 18 90 49 NO 1012,1 20 0 0,0
21.01.2018 03:00:00 11,6 5,0 7,7 5,7 7,5 28 15 56 31 NO 1011,1 60 0 1,6
21.01.2018 02:00:00 8,7 7,5 7,0 5,6 7,5 6 4 31 17 WZW 1011,2 2,2 0 4,0
21.01.2018 01:00:00 7,5 6,6 5,2 5,7 7,6 14 8 28 15 ONO 1009,6 4,2 0 1,8
21.01.2018 00:00:00 5,4 4,5 4,1 5,7 7,6 11 6 48 26 N 1009,5 13 0 1,5
20.01.2018 23:00:00 4,3 3,3 3,7 5,7 7,5 5 3 29 16 ZZW 1009,7 2,4 0 2,4
20.01.2018 22:00:00 3,9 2,9 3,3 5,7 7,6 5 3 19 10 W 1010,2 3,9 0 1,0
20.01.2018 21:00:00 3,4 2,5 3,1 5,8 7,6 8 4 38 20 ZW 1010,8 3,7 0 1,0
20.01.2018 20:00:00 3,3 2,4 2,8 5,8 7,6 9 5 35 19 ZW 1011,2 4,0 0 1,6
20.01.2018 19:00:00 3,0 2,1 2,4 5,8 7,5 18 10 39 21 ZZW 1011,5 2,6 0 1,0
20.01.2018 18:00:00 2,6 1,7 2,1 5,9 7,5 22 12 41 22 ZZW 1011,9 2,2 0 2,6
20.01.2018 17:00:00 2,3 1,3 1,9 5,9 7,5 28 15 44 24 ZZW 1011,7 2,9 0 1,6
20.01.2018 16:00:00 2,3 1,1 1,8 6,0 7,6 30 16 45 25 ZZW 1011,9 4,2 0 1,9
20.01.2018 15:00:00 2,5 1,0 2,3 6,0 7,6 25 13 46 25 ZW 1012,0 9 0 1,4
20.01.2018 14:00:00 3,2 1,2 2,8 6,0 7,5 18 10 45 24 ZZW 1013,1 7 0 2,8
20.01.2018 13:00:00 5,2 0,4 4,1 6,0 7,6 21 11 41 22 ZZW 1014,0 17 0 0,0
20.01.2018 12:00:00 5,0 1,1 4,3 6,0 7,5 22 12 41 22 ZZW 1016,2 18 0 0,0
20.01.2018 11:00:00 4,6 1,4 4,3 6,0 7,6 17 9 29 15 ZZW 1018,0 18 0 0,0
20.01.2018 10:00:00 4,2 1,4 2,9 6,0 7,6 11 6 29 15 ZZW 1018,7 19 0 0,0
20.01.2018 09:00:00 3,9 0,9 2,5 6,1 7,6 18 10 27 14 ZZW 1019,3 19 0 0,0
20.01.2018 08:00:00 3,7 1,2 2,6 6,1 7,5 16 9 27 15 ZZW 1019,9 18 0 0,0
20.01.2018 07:00:00 3,7 1,2 2,1 6,1 7,6 12 7 23 12 ZZW 1020,4 20 0 0,0
20.01.2018 06:00:00 2,6 1,4 1,8 6,1 7,6 7 4 14 7 ZZW 1020,7 19 0 0,0
20.01.2018 05:00:00 2,6 1,3 2,1 6,1 7,6 9 5 16 8 ZZW 1021,2 18 0 1,0
20.01.2018 04:00:00 3,7 2,7 2,9 6,2 7,6 5 3 11 6 NNW 1021,4 5 0 1,6
20.01.2018 03:00:00 3,4 2,2 2,4 6,2 7,6 0 0 12 7 N 1021,2 14 0 0,0
20.01.2018 02:00:00 3,5 1,9 2,5 6,2 7,6 4 2 10 5 ZZO 1021,5 19 0 0,0
20.01.2018 01:00:00 4,0 1,7 3,1 6,2 7,6 6 4 35 19 O 1021,6 5 0 1,6
20.01.2018 00:00:00 5,5 1,6 3,8 6,2 7,6 12 6 16 9 ZO 1020,7 20 0 0,0
19.01.2018 23:00:00 5,8 1,7 3,9 6,2 7,6 8 4 12 6 ZW 1020,7 20 0 0,0
19.01.2018 22:00:00 7,0 0,2 3,8 6,3 7,6 8 4 44 24 NNW 1020,1 20 0 0,0
19.01.2018 21:00:00 8,4 -2,9 3,8 6,3 7,6 17 9 43 23 N 1018,8 20 0 0,4
19.01.2018 20:00:00 7,3 1,4 4,9 6,2 7,6 13 7 29 15 WNW 1018,6 2,6 0 1,0
19.01.2018 19:00:00 7,5 1,8 5,1 6,2 7,6 13 7 21 11 ZZW 1016,7 18 0 0,0
19.01.2018 18:00:00 7,7 1,5 5,3 6,2 7,6 14 7 24 13 Z 1016,9 18 0 0,0
19.01.2018 17:00:00 8,2 0,7 5,8 6,1 7,6 15 8 24 13 Z 1017,3 19 0 0,0
19.01.2018 16:00:00 8,5 1,6 7,5 6,1 7,6 14 8 26 14 Z 1017,3 18 29 0,0
19.01.2018 15:00:00 10,1 1,7 9,5 6,0 7,6 11 6 29 16 Z 1016,7 17 42 0,0
19.01.2018 14:00:00 9,0 2,8 7,8 6,0 7,6 21 11 31 17 Z 1017,2 18 13 0,0
19.01.2018 13:00:00 9,1 3,1 8,7 6,0 7,6 0 0 11 6 N 1017,4 18 0 0,0
19.01.2018 12:00:00 9,1 3,3 8,8 5,9 7,6 0 0 4 2 N 1017,8 18 4 0,0
19.01.2018 11:00:00 8,2 3,2 6,6 5,9 7,6 0 0 9 5 N 1018,1 10 0 0,0
19.01.2018 10:00:00 7,6 3,4 5,3 5,9 7,6 8 4 14 8 ZO 1017,9 10 0 0,0
19.01.2018 09:00:00 7,3 2,6 5,2 5,9 7,6 7 4 22 12 Z 1017,4 19 0 0,0
19.01.2018 08:00:00 9,2 0,6 5,3 5,9 7,6 15 8 61 33 WNW 1016,9 10 0 0,0
19.01.2018 07:00:00 9,8 2,4 6,0 5,9 7,6 16 9 49 26 - 1016,2 10 0 0,0
19.01.2018 06:00:00 8,2 5,1 5,2 5,9 7,6 9 5 28 15 - 1016,0 5 0 0,9
19.01.2018 05:00:00 5,9 5,0 5,1 5,8 7,6 9 5 28 15 - 1016,3 4,9 0 3,0
19.01.2018 04:00:00 5,7 4,3 4,9 5,9 7,6 22 12 33 18 Z 1015,0 5 0 1,4
19.01.2018 03:00:00 5,5 4,1 4,4 5,9 7,6 24 13 44 24 ZZW 1015,2 6 0 0,6
19.01.2018 02:00:00 5,6 3,9 4,0 5,9 7,6 22 12 42 23 ZZW 1015,8 9 0 0,2
19.01.2018 01:00:00 5,1 3,6 4,0 5,9 7,6 26 14 44 24 ZZW 1016,4 10 0 0,0
19.01.2018 00:00:00 5,0 3,7 4,2 5,9 7,6 24 13 38 20 Z 1017,6 10 0 0,2
18.01.2018 23:00:00 5,2 3,8 4,4 5,9 7,6 24 13 37 20 ZZW 1017,6 10 0 0,6
18.01.2018 22:00:00 5,0 3,7 4,3 5,9 7,6 22 12 40 22 ZZW 1017,6 7 0 0,8
18.01.2018 21:00:00 5,0 3,5 4,2 5,9 7,6 26 14 36 19 Z 1017,7 10 0 0,4
18.01.2018 20:00:00 4,8 3,3 4,0 5,9 7,6 22 12 37 20 ZZW 1018,0 10 0 0,2
18.01.2018 19:00:00 5,0 3,0 4,3 5,9 7,6 26 14 44 24 Z 1018,0 10 0 0,2
18.01.2018 18:00:00 5,1 2,9 4,1 5,9 7,6 26 14 45 24 ZZW 1018,0 10 0 0,2
18.01.2018 17:00:00 4,9 2,8 4,0 5,9 7,6 32 17 45 25 Z 1018,4 18 0 0,2
18.01.2018 16:00:00 4,5 2,7 3,9 5,9 7,6 26 14 43 23 ZZW 1018,8 8 0 1,0
18.01.2018 15:00:00 4,6 2,3 3,8 5,9 7,6 22 12 39 21 ZZW 1019,1 10 0 0,4
18.01.2018 14:00:00 4,7 1,7 3,9 5,9 7,6 24 13 39 21 ZZW 1019,9 11 0 0,4
18.01.2018 13:00:00 5,1 0,8 4,0 5,9 7,6 29 15 43 23 ZZW 1020,8 18 0 0,0
18.01.2018 12:00:00 4,8 0,7 4,2 6,0 7,6 30 16 58 31 ZZW 1021,4 18 0 0,0
18.01.2018 11:00:00 5,2 0,4 4,0 6,0 7,6 24 13 50 27 ZZW 1022,0 10 0 0,0
18.01.2018 10:00:00 4,9 0,5 3,1 6,0 7,6 24 13 40 22 ZZW 1022,2 18 0 0,0
18.01.2018 09:00:00 4,3 0,1 2,9 6,0 7,6 21 11 37 20 ZZW 1022,8 10 0 0,0
18.01.2018 08:00:00 4,3 -0,1 2,9 6,0 7,5 18 10 44 24 ZZW 1023,2 10 0 0,0
18.01.2018 07:00:00 4,3 -0,5 2,8 6,0 7,6 22 12 44 24 ZZW 1022,7 10 0 0,0
18.01.2018 06:00:00 4,3 -0,5 2,6 6,1 7,6 22 12 38 20 ZZW 1022,1 10 0 0,0
18.01.2018 05:00:00 4,1 -0,5 2,6 6,1 7,6 27 14 38 21 ZZW 1022,3 18 0 0,0
18.01.2018 04:00:00 3,8 0,1 2,5 6,1 7,6 18 10 32 17 Z 1023,1 10 0 0,0
18.01.2018 03:00:00 3,7 0,2 2,5 6,2 7,6 16 9 27 15 ZZW 1024,2 16 0 0,0
18.01.2018 02:00:00 4,1 -0,1 2,6 6,2 7,6 13 7 29 16 ZZW 1024,8 10 0 0,0
18.01.2018 01:00:00 4,4 -0,2 2,7 6,2 7,6 18 10 26 14 Z 1024,9 10 0 0,0
18.01.2018 00:00:00 4,4 0,0 2,7 6,2 7,6 13 7 24 13 ZZW 1025,2 10 0 0,0
17.01.2018 23:00:00 4,1 0,6 2,7 6,3 7,6 13 7 24 13 Z 1024,4 17 0 0,0
17.01.2018 22:00:00 3,7 1,4 2,8 6,3 7,6 11 6 18 10 Z 1024,2 10 0 0,0
17.01.2018 21:00:00 4,0 1,0 2,6 6,3 7,6 10 5 21 11 Z 1024,3 15 0 0,0
17.01.2018 20:00:00 3,4 1,6 2,1 6,4 7,6 5 3 11 6 ZO 1024,1 10 0 0,0
17.01.2018 19:00:00 3,3 1,5 1,9 6,4 7,5 4 2 16 9 - 1023,5 10 0 0,0
17.01.2018 18:00:00 3,1 1,6 1,8 6,4 7,5 4 2 11 6 OZO 1022,9 10 0 0,0
17.01.2018 17:00:00 3,6 0,8 0,5 6,4 7,6 5 3 43 23 - 1022,1 10 0 0,6
17.01.2018 16:00:00 6,0 0,5 3,2 6,5 7,6 8 4 35 19 N 1020,6 10 0 0,0
17.01.2018 15:00:00 5,5 -1,0 2,8 6,5 7,6 17 9 52 28 NO 1019,9 20 0 0,2
17.01.2018 14:00:00 4,1 -0,3 1,8 6,5 7,5 24 13 78 42 - 1020,2 2,7 0 2,8
17.01.2018 13:00:00 6,5 -0,9 3,6 6,5 7,6 9 5 64 35 ZO 1018,5 10 0 0,0
17.01.2018 12:00:00 5,8 0,3 3,3 6,6 7,6 8 4 34 19 ZO 1018,4 12 0 0,2
17.01.2018 11:00:00 5,0 1,1 2,9 6,6 7,6 3 2 25 13 NO 1018,2 19 0 1,6
17.01.2018 10:00:00 4,6 0,7 2,8 6,6 7,6 6 3 39 21 ZZO 1017,1 17 0 0,2
17.01.2018 09:00:00 3,8 1,3 0,4 6,7 7,6 28 15 64 35 NNO 1016,4 11 0 1,2
17.01.2018 08:00:00 6,5 1,0 4,3 6,7 7,6 18 10 57 31 ZO 1013,4 10 0 0,4
17.01.2018 07:00:00 7,4 0,4 4,5 6,7 7,6 21 11 51 27 ZO 1012,3 10 0 0,0
17.01.2018 06:00:00 7,2 1,7 4,5 6,7 7,6 26 14 47 25 Z 1012,3 10 0 0,0
17.01.2018 05:00:00 8,0 -0,5 4,5 6,7 7,6 13 7 83 45 - 1011,8 10 0 2,4
17.01.2018 04:00:00 7,2 2,5 5,4 6,7 7,6 15 8 57 31 - 1011,7 3,3 0 3,7

tt = temperatuur
td = dauwpunt
tt 5cm = temperatuur 5cm
tt -20cm = temperatuur -20cm
tt -100cm = temperatuur -100cm
ff = windsnelheid
fx = windstoten
dd = windrichting
ppp = luchtdruk
vv = zicht
sd = Zonneschijnduur
rr = neerslag

Weerstations in de omgeving